Home   Weather   Innsbruck   Past weeks

Flag for Austria Past Weather in Innsbruck, Tyrol, Austria — Yesterday and Last 2 Weeks

Now
25 °F

Partly sunny.


Feels Like: N/A
Forecast: 9 / 19 °F
Wind: N/A

Location: Innsbruck-Flughafen

Current Time: Jan 16, 2017 at 2:05:29 pm

Latest Report: Jan 16, 2017 at 1:00 pm


Visibility: 3 mi

Pressure: 30.22 "Hg (28.11 "Hg at 570m altitude)

Humidity: 71%

Dew Point: 17 °F

Location of InnsbruckLocation

Past Weather in Innsbruck — Graph

°F

Innsbruck Temperature Yesterday

Maximum temperature yesterday: 29 °F (at 3:00 pm)
Minimum temperature yesterday: 16 °F (at 7:00 am)
Average temperature yesterday: 22 °F

High & Low Weather Summary for the Past Weeks

 TemperatureHumidityPressure
High44 °F (Jan 4, 2:00 pm)98% (Jan 5, 3:00 am)30.84 "Hg (Jan 5, 3:00 am)
Low2 °F (Jan 7, 6:00 am)37% (Jan 1, 3:00 pm)29.50 "Hg (Jan 13, 4:00 am)
Average25 °F83%30.21 "Hg
* Reported Jan 1 12:00 pm — Jan 16 12:00 pm, Innsbruck, Weather by CustomWeather, © 2017

Note: Actual official high and low records may vary slightly from our data, if they occured in-between our weather recording intervals... More about our weather records

Advertising

Innsbruck Weather History for the Previous 24 Hours

Scroll right to see more
 ConditionsComfort  
Time TempWeatherWind HumidityBarometerVisibility
12:00 pm
Mon, Jan 16
22 °FScattered clouds.N/A78%30.25 "Hg3 mi
11:00 am20 °FPartly sunny.N/A87%30.27 "Hg2 mi
10:00 am18 °FPartly sunny.N/A91%30.29 "Hg4 mi
9:00 am17 °FLow clouds.N/A92%30.28 "Hg3 mi
8:00 am17 °FLow clouds.N/A91%30.27 "Hg3 mi
7:00 am17 °FLow clouds.N/A92%30.26 "Hg4 mi
6:00 am19 °FLight snow. Low clouds.N/A94%30.24 "Hg4 mi
5:00 am19 °FLight snow. Overcast.N/A95%30.24 "Hg3 mi
4:00 am19 °FLight snow. Overcast.N/A95%30.24 "Hg3 mi
3:00 am21 °FLight snow. Overcast.N/A94%30.24 "Hg1 mi
2:00 am21 °FHeavy snow. Overcast.N/A94%30.24 "Hg2 mi
1:00 am20 °FSnow flurries. Overcast.N/A93%30.25 "Hg2 mi
12:00 am18 °FLow clouds.N/A93%30.27 "Hg6 mi
11:00 pm
Sun, Jan 15
20 °FOvercast.N/A95%30.26 "Hg4 mi
10:00 pm20 °FOvercast.N/A96%30.26 "Hg5 mi
9:00 pm23 °FOvercast.N/A90%30.24 "Hg6 mi
8:00 pm24 °FSnow flurries. Overcast.N/A92%30.24 "Hg4 mi
7:00 pm23 °FPassing clouds.N/A89%30.24 "Hg6 mi
6:00 pm24 °FPassing clouds.N/A89%30.22 "Hg6 mi
5:00 pm25 °FPassing clouds.N/A88%30.20 "Hg6 mi
4:00 pm27 °FPartly sunny.N/A82%30.19 "Hg6 mi
3:00 pm29 °FScattered clouds.N/A72%30.17 "Hg5 mi
2:00 pm28 °FPartly sunny.N/A70%30.18 "Hg5 mi
Weather by CustomWeather, © 2017

See weather overviewHow to use our weather pages